Weather History for KSAW - November, 2013

Change the Weather History Date:

Wednesday, November 27, 2013

  Actual Average (KESC) Record (KESC)
Temperature  
Mean Temperature 18 °F -  
Max Temperature 21 °F 35 °F 50 °F (1990)
Min Temperature 14 °F 23 °F 1 °F (2014)
Degree Days  
Heating Degree Days 48    
Moisture  
Dew Point 15 °F    
Average Humidity 86    
Maximum Humidity 93    
Minimum Humidity 68    
Precipitation  
Precipitation 0.00 in - - ()
Sea Level Pressure  
Sea Level Pressure 30.09 in    
Wind  
Wind Speed 12 mph (NNW)    
Max Wind Speed 23 mph    
Max Gust Speed 30 mph    
Visibility 5 miles    
Events Snow    
Averages and records for this station are not official NWS values.
T = Trace of Precipitation, MM = Missing Value Source: NWS Daily Summary

Daily Weather History Graph

Daily Weather History Graph

Search for Another Location

Airport or City:

Trip Planner

Search our weather history database for the weather conditions in past years. The results will help you decide how hot, cold, wet, or windy it might be!

Date:

Astronomy

Nov. 27, 2013 Rise Set
Actual Time 8:07 AM EST 5:06 PM EST
Civil Twilight 7:33 AM EST 5:40 PM EST
Nautical Twilight 6:56 AM EST 6:17 PM EST
Astronomical Twilight 6:20 AM EST 6:53 PM EST
Moon 1:50 AM EST (11/27) 2:01 PM EST (11/27)
Length of Visible Light 10h 06m
Length of Day
8h 59m
Waning Crescent, 32% of the Moon is Illuminated
Nov 27
Waning Crescent
Dec 2
New
Dec 9
First Quarter
Dec 17
Full
Dec 25
Last Quarter

Hourly Weather History & Observations

Time (EST) Temp. Windchill Dew Point Humidity Pressure Visibility Wind Dir Wind Speed Gust Speed Precip Events Conditions
12:17 AM 14.7 °F 3.8 °F 11.1 °F 86% 30.06 in 3.0 mi WNW 8.1 mph - N/A Snow Light Snow
12:36 AM 15.4 °F 2.3 °F 11.7 °F 85% 30.06 in 3.0 mi NW 11.5 mph - N/A Snow Light Snow
12:56 AM 15.8 °F 3.4 °F 12.4 °F 86% 30.05 in 1.2 mi NW 10.4 mph - N/A Snow Light Snow
1:17 AM 15.6 °F 3.2 °F 12.9 °F 89% 30.04 in 4.0 mi NW 10.4 mph - N/A Snow Light Snow
1:36 AM 15.8 °F 2.7 °F 13.1 °F 89% 30.04 in 1.8 mi NW 11.5 mph - N/A Snow Light Snow
1:57 AM 15.6 °F 4.0 °F 13.1 °F 90% 30.05 in 10.0 mi NW 9.2 mph - N/A Snow Light Snow
2:16 AM 16.7 °F 5.3 °F 14.0 °F 89% 30.05 in 2.0 mi NNW 9.2 mph - N/A Snow Light Snow
2:37 AM 19.9 °F 5.7 °F 16.9 °F 88% 30.05 in 1.8 mi North 16.1 mph 21.9 mph N/A Snow Light Snow
2:56 AM 20.1 °F 3.8 °F 17.4 °F 89% 30.04 in 1.0 mi North 21.9 mph 27.6 mph N/A Snow Light Snow
3:16 AM 20.3 °F 5.2 °F 16.7 °F 86% 30.05 in 2.5 mi North 18.4 mph 25.3 mph N/A Snow Light Snow
3:37 AM 20.1 °F 5.0 °F 16.9 °F 87% 30.05 in 0.8 mi NNE 18.4 mph 29.9 mph N/A Snow Light Snow
3:56 AM 19.9 °F 4.3 °F 16.0 °F 85% 30.05 in 3.0 mi North 19.6 mph 25.3 mph N/A Snow Light Snow
4:17 AM 19.2 °F 4.3 °F 14.0 °F 80% 30.05 in 10.0 mi North 17.3 mph 26.5 mph N/A   Mostly Cloudy
4:36 AM 19.4 °F 4.5 °F 15.1 °F 83% 30.05 in 3.0 mi North 17.3 mph 26.5 mph N/A Snow Light Snow
4:56 AM 19.8 °F 7.7 °F 15.3 °F 83% 30.06 in 5.0 mi North 11.5 mph 26.5 mph N/A   Haze
5:16 AM 19.4 °F 5.0 °F 15.4 °F 85% 30.07 in 1.8 mi North 16.1 mph 24.2 mph N/A Snow Light Snow
5:36 AM 19.9 °F 5.7 °F 14.0 °F 78% 30.07 in 10.0 mi North 16.1 mph 23.0 mph N/A   Overcast
5:57 AM 19.9 °F 6.7 °F 16.2 °F 85% 30.08 in 3.0 mi North 13.8 mph 17.3 mph N/A Snow Light Snow
6:55 AM 19.4 °F 2.5 °F 14.0 °F 80% 30.09 in 4.0 mi North 23.0 mph 28.8 mph N/A Snow Light Snow
7:50 AM 19.4 °F 5.5 °F 15.8 °F 86% 30.11 in 2.0 mi North 15.0 mph 26.5 mph N/A Snow Light Snow
8:30 AM 19.4 °F 5.0 °F 15.8 °F 86% 30.12 in 0.2 mi NNE 16.1 mph 28.8 mph N/A Snow Snow
8:50 AM 19.4 °F 5.5 °F 15.8 °F 86% 30.12 in 2.0 mi NNE 15.0 mph 24.2 mph N/A Snow Light Snow
9:50 AM 21.2 °F 6.4 °F 12.2 °F 68% 30.13 in 5.0 mi NE 18.4 mph 24.2 mph N/A Snow Light Snow
10:15 AM 19.4 °F 5.0 °F 15.8 °F 86% 30.14 in 0.5 mi NNE 16.1 mph 26.5 mph N/A Snow Light Snow
10:50 AM 19.4 °F 5.5 °F 14.0 °F 80% 30.14 in 3.0 mi NNE 15.0 mph - N/A Snow Light Snow
11:50 AM 21.2 °F 8.3 °F 15.8 °F 80% 30.14 in 3.0 mi NNE 13.8 mph - N/A Snow Light Snow
12:15 PM 19.4 °F 7.9 °F 15.8 °F 86% 30.13 in 0.2 mi NNE 10.4 mph 17.3 mph N/A Snow Snow
12:50 PM 21.2 °F 5.2 °F 15.8 °F 80% 30.11 in 1.5 mi North 21.9 mph - N/A Snow Light Snow
1:50 PM 21.2 °F 6.8 °F 14.0 °F 74% 30.10 in 2.0 mi NNE 17.3 mph 23.0 mph N/A Snow Light Snow
2:50 PM 19.4 °F 9.5 °F 15.8 °F 86% 30.10 in 10.0 mi NNE 8.1 mph - N/A   Scattered Clouds
3:50 PM 19.4 °F 6.0 °F 14.0 °F 80% 30.11 in 7.0 mi North 13.8 mph 19.6 mph N/A Snow Light Snow
4:55 PM 19.4 °F 8.6 °F 15.8 °F 86% 30.12 in 1.5 mi NNW 9.2 mph - N/A Snow Light Snow
5:35 PM 19.4 °F 10.4 °F 15.8 °F 86% 30.12 in 4.0 mi NW 6.9 mph - N/A Snow Light Snow
5:55 PM 19.4 °F 9.5 °F 15.8 °F 86% 30.12 in 4.0 mi NNW 8.1 mph - N/A Snow Light Snow
6:50 PM 17.6 °F 8.2 °F 15.8 °F 93% 30.13 in 10.0 mi NW 6.9 mph - N/A   Overcast
7:19 PM 17.6 °F 8.2 °F 14.0 °F 86% 30.12 in 5.0 mi NW 6.9 mph - N/A Snow Light Snow
7:50 PM 17.6 °F 9.3 °F 14.0 °F 86% 30.12 in 10.0 mi WNW 5.8 mph - N/A   Overcast
8:50 PM 17.6 °F - 14.0 °F 86% 30.12 in 10.0 mi Calm Calm - N/A   Overcast
9:48 PM 15.8 °F - 14.0 °F 93% 30.12 in 4.0 mi Calm Calm - N/A Snow Light Snow
10:16 PM 15.4 °F 9.8 °F 13.6 °F 93% 30.13 in 10.0 mi SSW 3.5 mph - N/A   Overcast
10:37 PM 15.3 °F 7.9 °F 13.5 °F 93% 30.13 in 10.0 mi SSW 4.6 mph - N/A   Overcast
10:56 PM 15.8 °F 8.6 °F 13.6 °F 91% 30.13 in 10.0 mi SSW 4.6 mph - N/A   Overcast
11:16 PM 15.3 °F 7.9 °F 13.1 °F 91% 30.13 in 10.0 mi SW 4.6 mph - N/A   Overcast
11:36 PM 15.8 °F 10.2 °F 13.1 °F 89% 30.13 in 5.0 mi SSW 3.5 mph - N/A Snow Light Snow
11:56 PM 15.3 °F 7.9 °F 12.9 °F 90% 30.13 in 7.0 mi WSW 4.6 mph - N/A   Overcast